Location: Greenlawn
(36.2434°N, 86.5619°W)
Time: 16:08:09
(UTC+00:00)

Daily predictions for brighter satellites

Satellite Brightness Start Highest point End
(mag) Time Altitude Azimuth Time Altitude Azimuth Time Altitude Azimuth
H-2A R/B 2.7 12:00:17 10° NNE 12:04:47 88° ESE 12:09:17 10° SSW
H-2A R/B 3.8 12:02:44 10° NNW 12:05:39 22° WNW 12:08:34 10° WSW
Chandra Rocket (1) 3.2 12:04:00 10° WSW 12:06:52 21° S 12:08:54 10° SE
Nadezhda 4 Rocket 4.0 12:02:33 10° NNW 12:08:33 59° W 12:14:31 10° S
Cosmos 1328 4.3 12:04:50 10° N 12:08:44 63° E 12:12:36 10° SSE
Cosmos 1634 Rocket 4.2 12:03:23 10° S 12:09:31 79° E 12:15:41 10° N
SL-4 R/B 2.5 12:06:29 10° SW 12:10:09 59° SE 12:14:08 10° NE
SL-16 R/B 2.9 12:06:50 10° S 12:12:22 60° ESE 12:17:56 10° NNE
Cosmos 1602 Rocket 3.6 12:08:03 10° N 12:12:31 89° E 12:16:59 10° S
ATLAS CENTAUR R/B 1.9 12:09:14 10° SSW 12:12:54 55° ESE 12:16:30 10° NE
PAYLOAD B 4.2 12:12:45 10° N 12:18:18 69° WNW 12:23:50 10° SSW
CZ-4B R/B 3.4 12:13:06 10° NNE 12:18:48 85° ESE 12:24:23 10° SSW
Cosmos 2278 Rocket 2.3 12:14:15 10° NNW 12:19:51 63° WSW 12:25:25 10° S
Cosmos 540 Rocket 4.1 12:16:02 10° SW 12:20:32 31° WNW 12:25:05 10° N
COSMO-SKYMED 1 4.5 12:24:31 10° WSW 12:25:51 11° W 12:27:12 10° WNW
Cosmos 2237 Rocket 2.8 12:21:19 10° SW 12:26:25 34° WNW 12:31:35 10° N
Cosmos 1953 3.8 12:26:04 10° WSW 12:28:45 17° WNW 12:31:28 10° NNW
FengYun 1-2 T 4.4 12:24:02 10° NNE 12:29:44 90° W 12:35:23 10° SSW
USA 307 3.3 12:25:58 10° SW 12:30:09 68° SE 12:34:21 10° NE
CZ-2D R/B 4.4 23:22:29 10° ESE 23:25:32 23° ENE 23:28:36 10° NNE
Cosmos 2228 3.2 23:22:22 10° N 23:26:30 48° E 23:30:39 10° SSE
SJ 16-02 2.7 23:23:49 10° SE 23:26:59 20° E 23:30:08 10° NE
SKYMED 2 4.0 23:23:15 10° NNE 23:27:22 41° E 23:31:28 10° S
Lacrosse 5 3.8 23:28:06 10° N 23:30:14 12° NNE 23:32:21 10° NE
SL-14 R/B 4.0 23:28:31 10° SSW 23:32:17 55° W 23:36:07 10° N
Cosmos 1844 Rocket 3.4 23:28:57 10° SSE 23:33:58 34° ESE 23:39:01 10° NE
CZ-4B R/B 1.3 23:34:47 10° NNE 23:38:09 66° E 23:41:24 10° S
CZ-2C R/B 3.6 23:36:01 10° SE 23:40:46 38° ENE 23:45:47 10° N
Cosmos 2058 Rocket 3.9 23:37:03 10° NNE 23:41:01 30° ENE 23:44:58 10° SE
CZ-4B R/B 3.7 23:35:56 10° S 23:41:22 69° WSW 23:46:58 10° NNW
Okean 1-7 Rocket 4.0 23:41:51 10° SSE 23:46:06 42° E 23:50:24 10° NNE
Cosmos 2142 Rocket 4.4 23:40:35 10° N 23:46:45 82° E 23:52:52 10° S
H-2A R/B 2.9 23:44:15 10° ESE 23:48:11 24° ENE 23:52:12 10° NNE
BREEZE-M DEB (TANK) 2.1 23:46:11 10° WNW 23:49:01 81° SSW 23:53:18 10° SE
Nadezhda 4 Rocket 4.3 23:43:24 10° SSE 23:49:18 45° E 23:55:10 10° NNE
